Location: Cranbrook Institute of Science
(42.5830°N, 83.2450°W)
Time: 18:06:26
(UTC-05:00)

Daily predictions for brighter satellites

Satellite Brightness Start Highest point End
(mag) Time Altitude Azimuth Time Altitude Azimuth Time Altitude Azimuth
Cosmos 2297 Rocket 2.5 17:22:40 10° NNW 17:28:04 44° ENE 17:33:28 10° SE
NOSS 3-2 (C) 4.5 17:22:11 10° NNW 17:29:02 39° NE 17:36:29 10° ESE
Cosmos 1656 4.5 17:24:21 10° SSE 17:29:15 32° ESE 17:34:05 10° NE
Cosmos 2026 Rocket 4.2 17:24:49 10° N 17:31:13 82° W 17:37:31 10° S
Cosmos 1666 2.8 17:29:16 10° N 17:32:57 51° E 17:36:35 10° SSE
ATLAS 3B R/B 2.6 17:26:47 10° NNW 17:33:29 71° NE 17:40:00 10° SE
Cosmos 2266 Rocket 4.5 17:28:04 10° N 17:33:39 36° ENE 17:39:17 10° SE
Meteor 1-12 Rocket 4.3 17:28:14 10° N 17:33:58 89° E 17:39:46 10° S
ATLAS 2AS CENTAUR R/B 3.2 17:28:11 10° SW 17:35:59 82° NW 17:44:11 10° NE
USA 161 2.2 17:33:26 10° N 17:36:20 58° WNW 17:39:19 10° SSW
Cosmos 1484 Rocket 3.0 17:35:02 10° SSE 17:38:56 52° ENE 17:42:52 10° N
Cosmos 1655 Rocket 4.1 17:32:37 10° N 17:39:03 83° E 17:45:27 10° S
Cosmos 1455 Rocket 3.1 17:34:50 10° N 17:39:13 58° E 17:43:31 10° SSE
Okean 1 4.1 17:35:25 10° SSW 17:39:18 54° W 17:43:12 10° N
Atlas Centaur 2 4.3 17:35:01 10° WSW 17:39:22 20° SSW 17:43:07 10° SSE
Cosmos 158 Rocket 3.9 17:38:13 10° NNW 17:43:15 59° ENE 17:48:07 10° SSE
Cosmos 1544 Rocket 3.5 17:39:17 10° N 17:43:38 71° E 17:47:57 10° SSE
DELTA 2 R/B (1) 3.9 17:39:06 10° W 17:44:36 66° S 17:50:08 10° E
USA 116 4.3 17:44:24 10° NE 17:47:02 24° E 17:49:37 10° SSE
NOSS 8 (A) 4.5 17:44:12 10° SSW 17:47:27 55° ESE 17:50:34 11° NE
USA 215 3.3 17:42:24 10° ESE 17:48:55 78° NE 17:55:29 10° NW
PSLV R/B 3.4 17:46:48 10° WSW 17:49:56 60° S 17:52:53 11° E
YAOGAN 1 3.2 17:47:02 10° SE 17:50:56 34° ENE 17:54:51 10° N
IRS-1A Rocket 4.5 17:46:25 10° SE 17:51:43 46° ENE 17:56:57 10° N
Abrixas rocket 3.4 17:49:03 10° WNW 17:51:58 29° N 17:54:22 13° NE
BREEZE-M DEB (TANK) 3.8 17:50:56 10° NW 17:53:28 38° NNE 17:58:36 10° E
CSL-04 Debris 4.1 17:48:32 10° SSE 17:53:55 78° ENE 17:59:19 10° NNW
Meteor 2-4 Rocket 3.7 17:51:28 10° S 17:56:46 59° E 18:02:02 10° NNE
Cosmos 468 4.5 17:51:48 10° NNW 17:57:10 82° ENE 18:02:27 10° SSE
NOSS 3-4 (A) 4.1 17:52:03 10° S 17:57:41 38° ESE 18:02:55 13° NE
NOSS 3-4 (C) 4.1 17:52:09 10° S 17:57:47 38° ESE 18:02:59 13° NE
Cosmos 1975 4.4 17:55:09 10° NNW 17:58:56 39° W 18:02:43 10° SSW
ISS -1.6 17:59:11 10° WNW 18:02:04 28° SW 18:04:57 10° SSE
Cosmos 724 4.2 17:56:44 10° NNW 18:02:33 77° ENE 18:08:22 10° SE
METEOR-M 4.4 17:58:22 10° SE 18:03:27 47° ENE 18:08:33 10° N
FENGYUN 3A 4.3 18:00:01 10° SE 18:04:39 30° ENE 18:09:17 10° N
Cosmos 2369 3.7 18:00:03 10° SSW 18:05:41 76° ESE 18:11:25 10° NNE
AQUARIUS 4.2 18:01:15 10° SSE 18:05:44 88° WSW 18:10:15 10° NNW
Cosmos 2278 3.7 18:00:14 10° SSW 18:05:52 72° ESE 18:11:35 10° NNE
COSMO-SKYMED 1 3.3 18:03:00 10° NNE 18:06:56 32° E 18:10:51 10° SSE
RESURS DK-1 4.2 18:05:46 10° SE 18:07:42 13° ESE 18:07:48 13° E
SJ 16-02 1.3 18:04:18 10° SSW 18:08:40 76° ESE 18:13:06 10° NNE
CSL-04 Rocket 4.0 18:03:51 10° S 18:09:15 71° WSW 18:14:47 10° NNW
Meteor 1-28 Rocket 3.1 18:06:04 10° NNE 18:09:51 82° ESE 18:13:38 10° S
Meteor 1-13 Rocket 4.4 18:06:32 10° SSW 18:12:08 79° W 18:17:54 10° N
CENTAUR R/B 3.7 18:05:26 10° NNW 18:12:25 35° NE 18:19:24 12° E
Cosmos 1697 Rocket 2.8 18:15:38 10° S 18:21:10 59° ESE 18:25:53 14° NNE
Cosmos 1515 3.9 18:19:12 10° SSE 18:22:49 45° E 18:25:17 18° NNE
CZ-2C R/B 3.7 18:19:08 10° NNE 18:23:51 84° ESE 18:28:37 10° SSW
EO 1 Del DPAF 3.8 18:22:11 23° NE 18:24:00 36° E 18:27:32 10° SSE
CZ-4 R/B 1.7 18:22:52 10° S 18:26:44 66° W 18:30:41 10° NNW
Meteor 1-15 Rocket 4.3 18:23:04 10° N 18:29:01 69° E 18:34:52 10° SSE
SPOT 3 Rocket 3.7 18:24:38 10° SE 18:29:35 49° ENE 18:34:34 10° N
Cosmos 1025 Rocket 3.1 18:27:11 10° SSE 18:31:20 49° E 18:34:10 19° NNE
Ariane Rocket 4.0 18:27:04 10° S 18:31:57 48° W 18:36:51 10° NNW
Cosmos 2082 4.3 18:29:16 10° NNW 18:34:47 60° WSW 18:40:18 10° S
MONITOR-E 4.0 18:33:47 10° SSE 18:36:47 63° ENE 18:39:49 10° N
SKYMED 3 4.5 18:33:12 13° NNE 18:37:06 70° ESE 18:41:25 10° S
ERS-2 2.0 18:33:58 10° SSE 18:37:34 60° ENE 18:41:13 10° N
Okean 1-7 Rocket 3.8 18:33:25 10° SSE 18:37:35 44° E 18:39:24 28° NE
Cosmos 494 Rocket 4.1 18:32:45 10° N 18:37:53 50° ENE 18:42:59 10° SE
Landsat 4 3.6 18:35:27 15° NNE 18:38:34 88° ESE 18:42:22 10° SSW
Gblst 52 Del rocket 4.2 18:34:18 10° NW 18:39:55 74° NNE 18:44:12 21° ESE
Cosmos 2251 Rocket 4.0 18:35:33 10° N 18:40:25 36° ENE 18:42:21 27° ESE
Cosmos 2084 3.3 18:36:23 10° SSW 18:40:30 63° ESE 18:41:44 40° ENE
Cosmos 2227 Rocket 3.7 18:40:25 10° NW 18:45:36 38° WSW 18:50:46 10° S
Cosmos 1269 Rocket 4.5 18:40:41 10° NNW 18:45:56 63° WSW 18:51:09 10° S
Cosmos 1125 Rocket 4.3 18:41:14 10° SW 18:46:22 50° WNW 18:51:31 10° N
Okean 2 3.2 18:44:24 10° S 18:48:29 80° E 18:50:50 25° NNE
Gbstr 26 Del rocket 4.4 18:42:30 10° WSW 18:50:36 81° NNW 18:54:39 30° NE
Cosmos 1241 Rocket 4.5 18:45:06 10° SSW 18:51:30 86° NW 18:55:41 23° NNE
DNEPR-1 R/B 4.1 18:49:37 10° NNW 18:54:42 66° NE 18:59:46 15° SE
ALOS 2.1 18:50:05 10° SSE 18:54:45 86° ENE 18:59:27 10° NNW
FengYun 1-2 T 4.5 18:49:41 10° SE 18:54:59 45° ENE 19:00:20 10° N
SKYMED 2 3.7 18:51:25 14° N 18:55:06 74° WNW 18:59:25 10° SSW
Cosmos 1980 Rocket 2.1 18:56:57 10° SSW 19:02:36 75° ESE 19:05:03 35° NE
Cosmos 1066 Rocket 4.1 19:00:47 10° S 19:06:12 59° E 19:07:38 44° NE
Cosmos 2297 Rocket 4.3 19:07:09 10° NW 19:11:52 27° WSW 19:16:32 10° SSW
NOSS 3-2 (C) 4.5 19:12:57 10° NW 19:20:26 62° WSW 19:28:32 10° SSE
SL-24 R/B - RUBIN 2 4.5 19:20:45 10° SW 19:26:55 67° NW 19:28:35 46° N
DELTA 2 R/B (1) 4.2 19:25:27 10° W 19:30:45 46° SSW 19:31:48 41° SSE
Cosmos 2344 4.0 19:24:56 10° S 19:31:21 41° SE 19:31:21 41° SE
Lacrosse 5 rocket 3.8 19:28:43 10° S 19:29:24 14° S 19:29:24 14° S
Cosmos 2227 4.1 19:27:07 10° NNW 19:32:54 90° WSW 19:34:03 59° SSE
S3M 3.8 19:36:40 10° S 19:42:47 86° W 19:44:07 58° N
RESURS DK-1 3.9 19:41:13 10° SW 19:43:45 34° WSW 19:43:45 34° WSW
SL-16 R/B 3.5 19:39:48 10° S 19:42:33 29° S 19:42:33 29° S
Cosmos 2263 Rocket 3.9 19:41:52 10° NNW 19:43:35 20° N 19:43:35 20° N
SJ 16-02 4.2 19:46:06 10° WNW 19:47:51 12° NW 19:49:36 10° NNW
NOSS 3-4 (A) 4.4 19:42:33 10° WSW 19:48:29 44° NW 19:50:24 35° N
NOSS 3-4 (C) 4.3 19:42:37 10° WSW 19:48:33 44° NW 19:50:27 35° N
Cosmos 2322 Rocket 3.6 19:44:10 10° S 19:46:37 27° S 19:46:37 27° S
CENTAUR R/B 3.2 19:55:54 10° NW 20:03:51 74° WSW 20:06:43 45° SSE
Cosmos 1980 Rocket 4.4 20:43:13 10° W 20:46:52 19° NW 20:46:52 19° NW
